Temp
18 18 18 19 19 20 20 21 21 22 22 23 24 24 24 25 25 24 23 31 29 27 26 24 25 24 24 24 24 24 23 24 26 27 27 28 28 28 29 27 28 28 24 22 21
18 18 18 19 20 21 21 21 22 22 23 23 24 24 24 25 24 22 31 30 29 27 25 25 25 24 23 24 24 24 24 26 26 26 26 29 28 28 28 27 26 24 23 22 20
17 18 19 19 20 20 21 21 22 22 23 24 24 24 24 24 22 29 32 31 29 27 26 26 26 26 26 24 25 25 26 27 28 28 28 28 29 30 27 26 26 23 22 22 21
17 18 19 20 20 21 21 21 22 23 23 24 24 24 24 22 29 30 31 31 29 27 26 25 25 26 25 26 26 27 28 28 30 29 28 28 27 28 28 28 26 24 23 22 21
17 17 19 20 20 20 21 22 22 23 24 24 24 24 23 25 27 30 31 29 27 26 26 24 25 25 27 26 27 27 29 28 29 28 27 28 28 27 28 29 26 24 23 22 22
16 18 19 20 20 20 21 23 23 24 24 25 25 24 22 28 30 30 30 28 27 26 25 25 26 26 28 27 27 28 28 29 28 27 27 27 27 27 28 28 26 24 23 23 23
16 18 19 20 20 21 22 23 24 25 26 25 24 23 23 28 30 30 29 29 27 26 24 26 28 28 28 28 27 29 28 28 28 27 27 28 28 27 28 27 26 24 24 23 24
15 16 18 20 20 21 22 24 25 25 26 25 24 22 23 28 28 28 27 27 26 25 26 28 29 28 29 30 30 29 28 26 29 28 29 28 25 27 27 27 26 25 24 24 24
16 16 18 20 20 21 23 24 23 24 24 23 22 22 26 27 26 28 28 28 27 25 25 28 29 28 29 29 26 27 28 28 30 29 28 27 27 27 26 27 26 25 25 25 25
16 16 18 20 20 21 24 23 22 22 22 22 22 24 27 29 30 29 28 29 28 25 27 27 27 27 25 26 27 29 29 30 29 28 28 27 27 27 26 27 27 26 25 25 25
16 16 18 20 20 22 24 22 19 21 22 25 26 27 27 30 30 30 29 28 29 30 28 28 28 27 28 28 28 29 28 28 30 29 28 27 27 26 26 27 27 26 25 25 26
16 17 18 20 21 22 21 20 22 22 20 22 22 24 26 28 29 30 31 30 29 29 29 28 27 28 29 28 28 27 28 28 30 29 29 26 27 27 27 27 28 27 26 26 26
16 16 18 21 21 21 20 23 22 21 20 23 24 25 27 28 29 30 30 30 30 30 29 27 30 29 30 31 31 28 29 31 31 29 29 27 28 27 26 27 27 27 27 27 27
14 15 18 20 19 19 21 23 23 21 21 27 27 28 28 27 30 30 30 31 30 29 28 28 28 32 31 31 29 30 31 31 28 28 29 29 27 27 26 27 27 27 26 26 27
12 13 16 17 17 17 23 24 24 23 25 30 29 30 28 29 31 32 31 30 29 29 28 28 31 31 31 32 30 30 31 30 28 28 28 28 27 27 25 25 26 27 28 26 25
13 15 17 16 16 23 23 25 24 23 28 30 29 29 30 30 31 30 31 29 29 29 28 28 29 30 29 31 30 32 31 26 24 24 26 27 27 27 25 27 27 28 28 28 26
18 18 17 16 20 23 23 21 23 25 29 29 30 30 30 30 31 30 30 30 28 27 28 28 29 29 31 32 30 29 26 26 28 25 28 24 27 27 29 28 29 28 28 29 29
21 22 21 22 22 22 23 22 25 29 28 29 28 29 30 30 30 29 28 27 28 26 23 27 29 30 30 31 33 31 27 25 30 27 27 26 28 30 30 28 27 30 29 29 28
22 22 22 22 23 21 20 22 26 28 29 28 28 27 28 28 29 29 29 27 27 26 28 26 29 29 31 31 31 29 28 26 23 22 25 26 27 29 31 29 29 28 29 29 29
22 22 22 23 23 22 21 22 25 25 27 28 28 28 28 26 27 28 26 29 27 25 28 28 29 30 30 31 30 30 26 28 23 30 31 27 27 28 33 32 29 27 27 28 29
22 21 22 23 22 20 22 23 25 27 28 29 28 28 28 27 25 24 26 28 27 26 25 25 27 29 30 29 28 28 27 22 22 22 26 27 27 26 30 31 31 29 27 27 28
19 22 23 23 21 15 21 23 23 27 25 26 27 27 27 24 24 26 27 27 27 26 29 26 23 27 30 27 27 27 27 24 25 28 21 23 26 28 27 29 29 30 27 27 28
17 18 23 23 20 19 20 24 25 25 24 26 25 24 24 23 26 25 26 28 27 25 27 27 23 25 27 27 27 27 27 23 20 20 23 25 27 27 25 25 26 27 28 27 26
17 21 19 16 16 21 21 22 25 26 24 25 24 24 24 23 22 25 24 27 26 25 24 24 21 24 25 27 26 28 26 24 23 23 23 22 24 25 22 22 24 25 27 27 26
14 17 17 19 20 18 21 22 23 24 24 23 25 24 25 24 23 24 25 24 26 24 24 24 25 26 26 28 27 27 26 25 25 23 25 26 22 23 21 21 21 22 25 26 26
15 16 15 16 16 21 18 21 23 23 24 24 25 25 25 25 25 25 25 25 26 24 26 21 25 25 27 26 27 26 26 24 24 23 23 22 24 21 21 21 22 21 22 25 25
15 15 15 16 17 20 20 22 23 22 25 24 24 24 25 25 22 21 22 23 24 25 23 24 22 22 26 24 25 26 26 24 23 22 22 25 23 21 21 21 20 21 21 22 23
Height
798 795 793 789 786 783 780 777 774 769 766 762 759 757 753 750 748 748 747 745 744 748 750 752 756 760 761 761 761 763 789 798 791 786 784 767 774 769 767 776 775 776 784 791 797
797 794 791 788 784 781 778 776 772 768 765 762 757 755 753 749 744 745 740 742 743 746 750 753 758 760 765 765 766 773 789 785 774 774 777 767 771 773 778 783 785 788 789 795 799
796 793 790 786 783 780 776 774 770 767 763 760 756 755 752 750 748 737 736 740 743 747 750 754 755 758 763 766 767 771 784 772 767 764 762 766 772 767 780 792 785 790 793 797 801
794 791 788 784 781 777 774 771 768 764 761 758 756 753 751 751 767 735 737 739 744 748 751 754 756 763 769 771 766 774 768 764 749 758 762 770 770 776 775 779 777 781 788 795 801
792 789 785 782 778 775 771 768 765 761 758 756 754 752 751 752 744 736 738 742 746 749 751 755 760 764 769 767 766 772 764 760 757 761 765 767 773 777 776 770 777 785 791 795 799
789 786 782 778 775 770 767 764 761 757 755 753 753 751 752 758 738 737 738 742 744 748 751 753 757 757 761 766 768 762 762 761 762 765 767 774 775 774 772 770 779 785 790 795 797
786 782 779 775 771 766 763 759 756 752 750 750 751 751 752 745 738 738 740 741 744 746 751 755 756 759 760 766 757 759 773 768 765 769 772 768 781 778 770 772 780 786 789 793 796
783 779 775 771 767 763 759 755 750 746 746 748 750 751 752 739 739 740 742 745 746 749 752 756 757 760 760 751 759 770 776 794 764 765 765 771 798 772 767 774 782 786 789 792 796
779 775 771 767 764 759 754 751 747 746 747 748 751 751 751 741 741 740 742 744 746 750 754 757 759 763 760 773 788 783 797 790 773 758 768 777 786 770 770 774 783 785 788 790 793
776 771 767 764 760 755 751 748 748 749 750 751 752 756 743 740 736 736 740 746 747 751 759 763 765 776 782 788 812 795 790 777 779 769 768 778 778 771 771 774 779 784 786 788 790
773 769 764 760 757 753 749 749 753 754 751 748 747 746 740 736 734 735 738 746 748 751 772 763 779 790 781 776 774 778 783 783 762 754 766 775 777 772 771 774 779 782 786 787 785
771 766 761 758 754 752 751 752 757 760 763 742 743 743 738 737 742 734 737 748 756 769 762 773 785 771 766 770 775 779 783 779 759 754 764 776 777 770 767 765 767 774 779 781 782
768 763 759 755 752 752 752 754 754 754 765 748 739 739 736 737 741 739 735 743 755 766 767 783 771 761 764 767 772 775 778 770 769 764 762 773 779 773 767 764 765 768 770 775 776
764 760 756 753 755 752 751 751 750 751 780 755 744 735 734 734 744 730 732 741 754 769 771 775 761 760 765 770 772 780 756 760 770 777 792 768 810 776 771 769 766 766 769 772 773
760 756 753 753 752 752 750 748 748 751 800 742 741 728 731 741 737 736 732 739 762 765 772 777 763 763 769 762 760 771 753 760 772 783 786 787 803 783 773 780 766 761 761 766 768
756 753 751 751 751 748 747 746 748 781 787 749 738 742 745 740 739 738 738 736 745 762 766 769 754 755 758 748 751 746 759 779 790 799 817 797 801 790 783 763 758 754 753 754 759
751 749 748 750 749 748 746 747 783 793 749 758 752 743 747 750 748 746 753 759 774 790 787 772 763 751 745 755 750 760 787 821 813 826 818 802 799 779 750 744 738 739 742 744 750
749 748 748 748 748 748 747 766 790 761 761 745 750 747 755 751 752 754 766 776 764 776 800 797 794 758 744 752 756 761 781 820 817 831 818 796 801 764 734 729 727 724 731 737 745
749 749 749 749 748 750 756 787 777 763 751 755 753 767 765 758 757 759 765 775 767 767 786 799 785 750 745 741 749 768 785 778 819 826 821 806 780 745 730 731 726 731 732 735 738
750 750 752 751 750 751 767 782 768 756 749 751 770 764 775 773 769 768 779 760 766 761 755 771 785 757 749 741 748 755 766 793 812 813 811 807 797 783 740 733 735 735 735 733 733
750 758 756 753 752 758 784 780 767 748 747 755 764 768 770 774 776 783 779 761 756 758 758 770 777 774 756 769 775 772 780 799 807 819 828 826 805 754 742 733 732 733 731 730 732
754 773 759 756 768 787 784 776 764 758 752 756 758 763 769 777 782 779 779 769 753 756 762 762 788 796 777 767 764 765 779 793 811 806 828 827 803 739 740 735 734 730 729 728 726
768 772 761 760 791 792 781 772 766 766 768 764 772 771 772 783 786 782 776 756 755 760 764 759 794 810 797 783 769 777 777 790 806 815 822 823 800 742 749 751 743 740 730 726 726
770 782 774 772 784 786 789 787 780 765 771 769 774 771 777 788 785 785 781 761 758 758 756 760 794 794 810 794 784 782 784 786 793 813 815 813 794 763 762 759 747 739 733 729 726
778 795 793 797 789 792 788 790 787 786 774 774 777 780 781 792 791 789 780 776 762 764 761 769 789 781 781 774 776 780 784 786 789 795 801 790 796 778 774 767 757 747 734 733 732
790 795 795 798 797 790 796 796 793 787 783 786 785 781 779 787 786 790 782 779 778 770 770 779 791 786 789 782 778 783 779 785 789 791 791 789 787 780 769 761 754 752 749 746 735
793 794 796 802 799 797 801 794 792 788 780 778 781 782 781 779 778 775 774 772 772 775 782 783 795 801 803 794 791 799 782 784 789 791 792 788 783 779 774 764 764 753 751 750 746
Wind_Speed
20 21 21 21 21 21 20 20 20 20 19 20 17 16 16 15 14 5 5 2 11 23 20 15 9 8 3 2 3 3 4 2 2 1 2 3 4 2 1 8 1 3 6 14 26
21 22 22 22 21 21 21 20 20 21 19 19 17 16 14 15 14 6 5 9 11 24 21 12 4 7 2 1 1 3 3 2 5 4 2 3 6 7 4 9 4 9 17 24 25
22 23 22 22 22 22 22 22 21 21 19 18 16 15 13 11 4 4 7 13 18 23 14 7 7 3 1 1 1 2 3 5 6 6 4 4 7 1 11 5 4 13 18 18 19
22 23 23 23 23 23 23 22 22 20 19 17 13 13 9 2 4 3 11 17 22 18 14 7 4 2 2 3 2 4 5 4 3 6 4 3 4 2 9 4 8 19 20 17 14
23 24 24 24 24 24 25 23 22 20 19 15 11 10 2 1 7 2 15 19 25 19 10 5 3 3 1 2 3 1 3 5 5 7 3 2 2 3 7 1 16 16 16 16 14
24 24 24 25 25 27 25 24 23 21 18 11 7 5 1 2 5 5 18 21 20 20 9 7 5 4 0 1 2 4 2 2 4 2 2 2 1 5 3 12 18 19 17 14 15
25 25 25 25 26 27 26 25 24 23 15 6 4 1 1 6 4 11 20 19 22 22 5 8 3 4 2 4 4 5 2 4 3 5 3 6 3 7 5 15 18 17 15 14 14
25 25 26 25 26 27 26 26 25 12 3 6 6 2 5 2 1 16 19 14 19 22 17 4 13 4 4 4 2 6 5 2 5 9 4 7 6 5 8 18 16 16 14 14 13
25 26 26 26 26 27 26 24 6 5 8 9 4 2 5 3 4 15 19 6 19 17 13 13 6 5 3 2 5 5 3 5 1 13 6 6 4 5 6 12 14 14 14 14 13
26 28 27 26 26 26 24 5 8 9 8 4 2 2 2 4 3 10 23 9 4 4 2 2 2 2 3 5 3 5 5 5 5 8 7 6 5 8 8 8 13 13 13 13 13
27 28 27 25 23 23 17 2 4 3 0 5 2 2 4 8 2 6 10 11 4 2 4 3 3 2 6 5 6 4 5 9 3 9 6 9 5 10 10 8 9 8 11 11 14
27 27 26 22 23 12 7 5 6 2 6 5 6 5 7 3 3 1 15 6 5 4 0 5 5 6 4 5 6 6 5 6 2 7 4 7 8 5 15 17 17 14 10 13 10
27 27 24 19 14 2 5 6 7 2 2 6 4 4 4 8 4 4 8 4 4 3 0 5 4 4 2 2 4 3 3 4 3 4 2 5 4 7 8 6 12 13 11 10 13
27 26 21 16 1 8 1 4 13 10 4 4 3 5 4 4 1 3 6 5 2 7 3 5 4 2 1 4 4 4 0 3 4 3 2 1 4 4 4 13 16 15 13 12 11
27 22 17 8 8 2 2 14 2 3 4 1 2 7 2 6 4 1 2 5 8 4 5 6 2 2 2 4 5 8 5 4 2 3 3 4 3 5 7 9 16 18 18 16 13
22 17 13 2 4 4 9 10 3 5 3 3 4 4 5 2 2 2 3 6 4 5 2 7 2 4 6 4 7 1 3 8 5 4 3 4 4 4 5 10 15 15 18 21 16
19 14 6 4 1 4 10 3 4 5 3 5 2 3 2 3 0 3 5 3 5 4 3 5 4 4 3 3 2 4 6 3 4 5 4 4 2 8 7 8 14 23 21 21 19
11 7 5 2 1 5 2 5 7 3 3 2 3 3 4 1 2 2 4 2 0 5 3 3 5 5 2 5 4 1 7 5 2 2 4 2 4 5 4 8 8 17 18 17 17
6 5 5 8 3 3 5 5 3 2 3 4 3 7 6 5 2 3 4 3 6 9 6 3 5 4 3 2 5 2 2 4 7 3 2 3 7 9 2 6 3 8 13 18 17
2 3 9 7 5 2 5 2 3 4 5 4 4 2 4 6 4 4 5 2 5 8 1 5 2 1 6 3 4 2 6 4 4 1 2 4 5 5 5 3 3 8 11 13 14
3 4 13 4 8 5 4 3 4 5 4 6 2 3 2 3 4 5 4 4 4 6 6 5 3 7 3 6 3 3 4 7 5 4 5 1 6 6 6 3 3 6 8 12 12
3 3 11 11 5 2 3 4 6 6 5 7 4 4 4 6 6 4 4 3 9 3 4 1 5 1 2 6 3 4 4 4 5 3 1 3 6 2 8 1 5 1 7 7 11
3 0 6 5 4 4 6 5 5 9 7 6 7 6 5 4 4 4 5 6 7 7 2 3 2 3 6 6 4 6 3 4 5 3 3 5 6 6 11 9 9 8 5 6 8
3 3 4 4 1 2 5 6 5 5 5 5 4 4 6 8 6 4 8 4 8 6 8 4 3 5 6 5 3 3 4 1 5 3 2 5 8 9 17 14 14 10 6 7 7
4 0 2 3 5 4 2 4 6 7 6 9 6 5 2 4 5 4 2 6 5 8 7 4 3 2 1 1 4 3 2 4 2 5 5 3 5 6 12 11 8 10 12 7 2
3 2 4 1 3 4 6 5 5 6 5 5 3 4 3 3 1 4 1 1 4 6 4 5 0 2 1 5 1 3 1 5 2 1 3 5 3 6 6 5 12 13 13 10 13
6 2 2 4 3 3 2 3 4 5 1 3 2 1 2 2 4 9 8 4 4 3 1 1 4 2 2 3 4 3 3 2 2 0 3 0 1 5 7 11 8 5 10 10 8
Wind_Direction
354 352 350 348 347 346 346 346 346 343 340 339 338 337 328 322 316 291 221 199 181 166 163 146 109 124 138 317 349 32 63 60 89 88 291 20 97 91 127 130 142 60 111 129 137
348 347 347 345 344 343 343 343 344 341 338 338 332 334 330 327 312 247 213 174 177 165 163 147 129 156 133 58 65 69 97 108 182 177 188 176 136 157 112 156 61 73 101 130 139
345 346 344 344 342 341 339 339 339 336 334 334 329 333 332 331 314 251 176 183 174 166 167 147 120 117 35 133 83 124 110 181 200 197 164 78 137 147 136 194 208 148 143 145 149
343 342 339 338 338 337 335 333 333 331 328 329 325 329 334 347 184 39 163 163 166 165 147 113 40 49 20 4 133 111 140 225 227 156 93 90 105 74 166 169 152 149 151 150 162
340 339 337 335 334 332 331 329 329 325 323 321 315 327 360 311 256 334 166 164 164 167 166 130 135 149 311 257 95 45 193 175 309 49 33 332 191 153 210 115 135 141 150 164 173
338 337 336 333 332 330 328 327 326 320 313 306 294 319 3 245 318 197 169 168 176 174 173 152 186 203 321 238 156 191 245 215 201 169 251 202 192 133 201 141 144 152 164 175 181
337 336 334 333 331 329 327 326 324 311 299 267 235 122 92 229 308 185 175 187 191 188 166 199 196 10 334 319 204 141 106 335 279 161 249 139 309 239 162 149 155 162 170 179 192
339 339 335 333 332 329 327 328 320 315 251 182 168 144 240 355 242 179 185 202 209 212 221 305 237 291 236 258 52 145 114 173 216 155 236 132 262 230 150 151 164 165 176 187 192
342 338 334 332 332 330 328 331 348 81 116 136 122 162 276 169 199 202 191 175 226 229 246 269 322 200 343 44 12 1 257 213 288 179 149 204 203 162 138 163 161 177 181 191 199
338 336 333 333 333 331 335 34 94 93 103 100 95 50 244 217 190 191 203 182 170 125 341 210 192 149 24 60 266 280 291 249 180 204 178 193 200 157 161 171 178 174 183 195 200
337 333 331 333 334 331 345 115 15 2 248 210 209 265 284 312 228 186 173 175 297 115 185 195 168 183 231 214 237 255 242 260 187 182 152 199 195 173 175 178 190 193 181 189 200
334 330 330 333 330 331 16 87 111 219 315 264 244 268 267 306 326 51 150 142 157 198 7 14 278 202 222 227 233 243 266 281 317 155 128 165 227 202 186 197 193 193 203 201 201
330 327 326 331 330 53 339 140 326 197 132 297 209 193 219 155 211 242 137 140 123 125 124 165 238 313 207 308 324 293 216 294 262 88 69 157 262 180 194 181 193 200 203 219 206
329 326 323 335 103 338 231 317 331 172 61 280 273 274 138 147 262 220 169 134 62 189 172 253 277 238 6 321 130 328 226 274 146 116 213 326 271 254 179 189 195 199 197 211 217
329 326 321 331 299 244 305 330 49 134 73 238 143 163 153 151 142 335 187 60 165 169 104 254 225 280 308 226 177 244 53 100 101 51 58 354 46 270 132 204 204 204 203 205 206
332 327 321 315 258 270 326 333 122 43 65 39 121 154 123 6 31 82 112 60 136 137 13 238 282 256 215 234 195 306 110 41 45 66 26 267 128 281 189 213 213 209 205 204 203
337 322 292 213 223 339 333 44 45 88 323 346 46 141 142 147 291 130 163 182 149 98 280 317 250 272 201 298 28 89 58 343 5 22 207 348 25 241 232 229 204 203 201 202 200
351 10 9 248 42 355 16 54 71 265 277 352 46 83 115 123 210 106 77 142 310 88 110 161 340 192 161 212 210 204 149 152 212 171 267 351 241 262 225 284 221 202 202 195 191
13 18 20 355 266 292 71 52 188 229 302 21 43 56 349 8 96 80 146 171 229 170 182 148 282 298 194 238 127 161 140 166 104 9 38 265 290 303 315 348 121 145 168 193 190
52 49 16 15 95 11 74 240 282 222 330 61 90 45 1 323 69 51 16 112 319 206 211 204 345 305 294 65 49 165 150 57 13 143 257 297 295 243 316 53 72 151 176 190 195
52 53 355 2 338 42 81 291 312 292 346 44 73 53 10 10 51 25 347 288 34 307 163 140 92 291 25 20 311 5 26 51 115 107 162 259 275 224 234 118 88 205 198 179 190
71 46 344 345 40 53 24 332 310 336 358 38 87 53 48 29 39 61 14 257 342 294 117 273 127 199 118 317 305 68 94 109 109 258 109 145 279 250 268 123 342 172 199 204 188
75 234 10 347 61 341 324 347 32 18 22 26 25 34 37 46 77 34 323 293 4 25 87 179 12 61 356 347 354 56 19 100 106 80 191 135 259 354 14 12 344 310 255 229 198
76 44 336 44 54 87 8 354 3 355 52 52 28 64 48 26 12 10 349 323 344 359 39 88 105 148 183 199 172 64 3 54 114 102 204 226 298 335 347 344 339 320 320 268 215
29 84 185 359 353 23 50 1 354 14 12 22 19 41 78 38 5 356 331 323 342 351 21 69 77 28 349 175 115 134 77 359 111 161 171 215 291 335 331 323 343 3 19 34 21
86 52 3 84 302 21 7 358 20 332 28 349 55 324 23 102 85 289 332 320 263 345 36 1 74 61 343 297 306 119 171 105 15 279 235 289 279 343 323 358 32 27 24 15 64
27 48 105 315 359 75 333 323 1 336 341 95 311 357 24 303 261 236 221 260 263 318 120 62 130 90 202 1 354 349 251 127 123 27 275 30 324 326 355 30 350 67 40 20 22